Weather History for Eelde, Netherlands

Change the Weather History Date:

Sunday, October 28, 2012

  Actual Average Record
Temperature  
Mean Temperature 40 °F -  
Max Temperature 49 °F 48 °F 69 °F (2005)
Min Temperature 30 °F 36 °F 21 °F (1997)
Degree Days  
Heating Degree Days 26    
Moisture  
Dew Point 35 °F    
Average Humidity 83    
Maximum Humidity 100    
Minimum Humidity 60    
Precipitation  
Precipitation 0.00 in 0.10 in - ()
Sea Level Pressure  
Sea Level Pressure 29.94 in    
Wind  
Wind Speed 6 mph ()    
Max Wind Speed 15 mph    
Max Gust Speed -    
Visibility 6.5 miles    
Events Rain    
Averages and records for this station are not official NWS values.
T = Trace of Precipitation, MM = Missing Value Source: Averaged Metar Reports

Daily Weather History Graph

Daily Weather History Graph

Search for Another Location

Airport:

Trip Planner

Search our weather history database for the weather conditions in past years. The results will help you decide how hot, cold, wet, or windy it might be!

Date:

Astronomy

Oct. 28, 2012 Rise Set
Actual Time 7:24 AM CET 5:09 PM CET
Civil Twilight 6:48 AM CET 5:45 PM CET
Nautical Twilight 6:07 AM CET 6:26 PM CET
Astronomical Twilight 5:27 AM CET 7:06 PM CET
Moon 4:21 PM CET (10/28) 5:56 AM CET (10/28)
Length of Visible Light 10h 56m
Length of Day
9h 44m
Waxing Gibbous, 98% of the Moon is Illuminated
Oct 28
Waxing Gibbous
Oct 29
Full
Nov 7
Last Quarter
Nov 13
New
Nov 20
First Quarter

Hourly Weather History & Observations

Time (CET) Temp. Windchill Dew Point Humidity Pressure Visibility Wind Dir Wind Speed Gust Speed Precip Events Conditions
12:25 AM 35.6 °F 30.7 °F 32.0 °F 87% 29.95 in 6.2 mi North 5.8 mph - N/A   Partly Cloudy
12:55 AM 35.6 °F 29.2 °F 33.8 °F 93% 29.95 in 6.2 mi WNW 8.1 mph - N/A   Partly Cloudy
1:25 AM 32.0 °F - 30.2 °F 93% 29.95 in 6.2 mi Variable 1.2 mph - N/A   Unknown
1:55 AM 30.2 °F - 28.4 °F 93% 29.95 in 6.2 mi Variable 2.3 mph - N/A   Unknown
2:00 AM 30 °F - 29 °F 92% 29.97 in 15 mi West 4.5 mph - -   Partly Cloudy
2:25 AM 32.0 °F 25.6 °F 32.0 °F 100% 29.95 in 6.2 mi West 6.9 mph - N/A   Partly Cloudy
2:55 AM 33.8 °F 27.0 °F 32.0 °F 93% 29.95 in 6.2 mi West 8.1 mph - N/A   Mostly Cloudy
2:25 AM 33.8 °F 29.6 °F 32.0 °F 93% 29.95 in 6.2 mi WNW 4.6 mph - N/A   Partly Cloudy
2:55 AM 33.8 °F 28.6 °F 33.8 °F 100% 29.98 in 6.2 mi NNW 5.8 mph - N/A Rain Heavy Drizzle
3:25 AM 33.8 °F 27.7 °F 33.8 °F 100% 29.95 in 6.2 mi West 6.9 mph - N/A   Partly Cloudy
3:55 AM 32.0 °F - 32.0 °F 100% 29.95 in 6.2 mi Variable 2.3 mph - N/A   Scattered Clouds
4:00 AM 34 °F - 33 °F 94% 29.97 in 3 mi NW 2.2 mph - - Rain Light Rain Showers
4:25 AM 33.8 °F 30.8 °F 32.0 °F 93% 29.95 in 6.2 mi South 3.5 mph - N/A   Scattered Clouds
4:55 AM 32.0 °F 26.4 °F 30.2 °F 93% 29.95 in 6.2 mi SSW 5.8 mph - N/A   Unknown
5:25 AM 30.2 °F 25.4 °F 30.2 °F 100% 29.95 in 6.2 mi SW 4.6 mph - N/A   Unknown
5:55 AM 30.2 °F 26.7 °F 30.2 °F 100% 29.95 in 6.2 mi South 3.5 mph - N/A   Unknown
6:25 AM 32.0 °F 27.5 °F 30.2 °F 93% 29.95 in 6.2 mi SW 4.6 mph - N/A   Unknown
6:55 AM 30.2 °F 26.7 °F 30.2 °F 100% 29.95 in 6.2 mi SSW 3.5 mph - N/A   Partly Cloudy
7:25 AM 30.2 °F 24.3 °F 30.2 °F 100% 29.95 in 6.2 mi SSW 5.8 mph - N/A   Mostly Cloudy
7:55 AM 30.2 °F 25.4 °F 30.2 °F 100% 29.95 in 6.2 mi SSW 4.6 mph - N/A   Unknown
8:25 AM 30.2 °F 24.3 °F 30.2 °F 100% 29.95 in 6.2 mi SW 5.8 mph - N/A   Unknown
8:55 AM 33.8 °F 30.8 °F 33.8 °F 100% 29.95 in 6.2 mi SSW 3.5 mph - N/A   Unknown
9:25 AM 37.4 °F 32.8 °F 35.6 °F 93% 29.95 in 6.2 mi SSW 5.8 mph - N/A   Unknown
9:55 AM 39.2 °F 35.0 °F 37.4 °F 93% 29.95 in 6.2 mi SSW 5.8 mph - N/A   Unknown
10:00 AM 41 °F - 38 °F 85% 29.96 in 22 mi SSW 6.7 mph - -   Scattered Clouds
10:25 AM 42.8 °F 38.0 °F 37.4 °F 81% 29.95 in 6.2 mi SSW 8.1 mph - N/A   Unknown
10:55 AM 44.6 °F 40.2 °F 39.2 °F 81% 29.95 in 6.2 mi SW 8.1 mph - N/A   Partly Cloudy
11:25 AM 46.4 °F 42.4 °F 41.0 °F 81% 29.95 in 6.2 mi SSW 8.1 mph - N/A   Unknown
11:55 AM 46.4 °F 41.5 °F 41.0 °F 81% 29.95 in 6.2 mi SSW 10.4 mph - N/A   Unknown
12:25 PM 48.2 °F - 41.0 °F 76% 29.95 in 6.2 mi SW 12.7 mph - N/A   Unknown
12:55 PM 48.2 °F - 39.2 °F 71% 29.92 in 6.2 mi SW 13.8 mph - N/A   Unknown
1:00 PM 48 °F - 38 °F 60% 29.94 in 22 mi SW 13.4 mph - -   Partly Cloudy
1:25 PM 48.2 °F - 37.4 °F 66% 29.92 in 6.2 mi WSW 11.5 mph - N/A   Partly Cloudy
1:55 PM 48.2 °F - 35.6 °F 62% 29.92 in 6.2 mi SW 15.0 mph - N/A   Partly Cloudy
2:25 PM 46.4 °F 40.7 °F 35.6 °F 66% 29.92 in 6.2 mi SW 12.7 mph - N/A   Unknown
2:55 PM 48.2 °F - 37.4 °F 66% 29.92 in 6.2 mi SW 11.5 mph - N/A   Mostly Cloudy
3:25 PM 48.2 °F - 39.2 °F 71% 29.92 in 6.2 mi SW 10.4 mph - N/A   Partly Cloudy
3:55 PM 46.4 °F 41.1 °F 37.4 °F 71% 29.92 in 6.2 mi SW 11.5 mph - N/A   Unknown
4:00 PM 46 °F - 37 °F 62% 29.92 in 25 mi SSW 8.9 mph - -   Scattered Clouds
4:25 PM 44.6 °F 39.7 °F 37.4 °F 76% 29.92 in 6.2 mi SSW 9.2 mph - N/A   Unknown
4:55 PM 42.8 °F 38.6 °F 35.6 °F 76% 29.89 in 6.2 mi South 6.9 mph - N/A   Unknown
5:25 PM 42.8 °F 38.6 °F 35.6 °F 76% 29.92 in 6.2 mi SSW 6.9 mph - N/A   Unknown
5:55 PM 44.6 °F 40.7 °F 35.6 °F 71% 29.92 in 6.2 mi SSW 6.9 mph - N/A   Unknown
6:25 PM 44.6 °F 39.7 °F 35.6 °F 71% 29.92 in 6.2 mi South 9.2 mph - N/A   Unknown
6:55 PM 44.6 °F 39.7 °F 35.6 °F 71% 29.92 in 6.2 mi South 9.2 mph - N/A   Unknown
7:00 PM 44 °F - 35 °F 62% 29.93 in 28 mi South 8.9 mph - -   Partly Cloudy
7:25 PM 42.8 °F 37.0 °F 35.6 °F 76% 29.92 in 6.2 mi South 10.4 mph - N/A   Unknown
7:55 PM 42.8 °F 37.0 °F 35.6 °F 76% 29.92 in 6.2 mi South 10.4 mph - N/A   Unknown
8:25 PM 42.8 °F 36.6 °F 35.6 °F 76% 29.92 in 6.2 mi South 11.5 mph - N/A   Unknown
8:55 PM 42.8 °F 36.2 °F 33.8 °F 70% 29.89 in 6.2 mi South 12.7 mph - N/A   Unknown
9:25 PM 41.0 °F 33.9 °F 33.8 °F 76% 29.92 in 6.2 mi South 12.7 mph - N/A   Unknown
9:55 PM 41.0 °F 33.9 °F 33.8 °F 76% 29.89 in 6.2 mi South 12.7 mph - N/A   Unknown
10:00 PM 42 °F - 35 °F 66% 29.91 in 16 mi South 13.4 mph - -   Overcast
10:25 PM 41.0 °F 33.9 °F 35.6 °F 81% 29.89 in 6.2 mi South 12.7 mph - N/A   Unknown
10:55 PM 41.0 °F 33.9 °F 35.6 °F 81% 29.89 in 6.2 mi South 12.7 mph - N/A   Overcast